Torna al catalogo

STARLINK-30540

AttivoComunicazioniVLEO
NORAD 58002·PAYLOAD·🇺🇸 United States

Lanciato Oct 5, 2023 da Cape Canaveral Space Force Station

Loading…

Prossimi Passaggi (prossime 24 ore)

TLE

AggiornatoSource: CelesTrak SupGP

Epoca: Sep 15, 2026, 03:11 UTC

1 58002C 23153M   26258.13312500 -.00041007  00000+0 -14852-2 0  2580
2 58002  43.0028  76.9461 0001508 269.6303  25.3768 15.27599208    10

Traccia STARLINK-30540 in tempo reale con AllMySat

Download on the App Store